Weather History for KGEZ - January, 2014

Change the Weather History Date:

Monday, January 13, 2014

  Actual Average Record
Temperature  
Mean Temperature 45 °F 28 °F  
Max Temperature 51 °F 36 °F 66 °F (2013)
Min Temperature 39 °F 21 °F 9 °F (2009)
Degree Days  
Heating Degree Days 20 36  
Month to date heating degree days 501 468  
Since 1 July heating degree days 2580 2572  
Cooling Degree Days 0 0  
Month to date cooling degree days 0 0  
Year to date cooling degree days 0 0  
Moisture  
Dew Point 38 °F    
Average Humidity 76    
Maximum Humidity 93    
Minimum Humidity 58    
Precipitation  
Precipitation 0.00 in 0.08 in 1.37 in (2005)
Month to date precipitation 1.88 1.21  
Year to date precipitation 1.88 1.21  
Sea Level Pressure  
Sea Level Pressure 29.74 in    
Wind  
Wind Speed 13 mph (SSW)    
Max Wind Speed 22 mph    
Max Gust Speed 28 mph    
Visibility 10 miles    
Events      
T = Trace of Precipitation, MM = Missing Value Source: NWS Daily Summary

Daily Weather History Graph

Daily Weather History Graph

Search for Another Location

Airport or City:

Trip Planner

Search our weather history database for the weather conditions in past years. The results will help you decide how hot, cold, wet, or windy it might be!

Date:

Astronomy

Jan. 13, 2014 Rise Set
Actual Time 8:02 AM EST 5:41 PM EST
Civil Twilight 7:33 AM EST 6:11 PM EST
Nautical Twilight 6:59 AM EST 6:44 PM EST
Astronomical Twilight 6:27 AM EST 7:16 PM EST
Moon 3:56 PM EST (1/13) 5:51 AM EST (1/13)
Length of Visible Light 10h 38m
Length of Day
9h 38m
Waxing Gibbous, 95% of the Moon is Illuminated
Jan 13
Waxing Gibbous
Jan 15
Full
Jan 24
Last Quarter
Jan 30
New
Feb 6
First Quarter

Hourly Weather History & Observations

Time (EST) Temp. Windchill Dew Point Humidity Pressure Visibility Wind Dir Wind Speed Gust Speed Precip Events Conditions
12:53 AM 42.1 °F 35.2 °F 30.9 °F 65% 29.84 in 10.0 mi South 12.7 mph - N/A   Clear
1:53 AM 42.1 °F 34.9 °F 30.9 °F 65% 29.82 in 10.0 mi South 13.8 mph - N/A   Clear
2:53 AM 43.0 °F 35.1 °F 30.9 °F 62% 29.81 in 10.0 mi South 17.3 mph - N/A   Clear
3:53 AM 45.0 °F 37.9 °F 30.9 °F 58% 29.79 in 10.0 mi South 16.1 mph - N/A   Clear
4:53 AM 44.1 °F 37.4 °F 30.9 °F 60% 29.78 in 10.0 mi South 13.8 mph - N/A   Clear
5:53 AM 45.0 °F 37.9 °F 32.0 °F 60% 29.78 in 10.0 mi South 16.1 mph - N/A   Clear
6:53 AM 45.0 °F 38.9 °F 33.1 °F 63% 29.75 in 10.0 mi South 12.7 mph - N/A   Mostly Cloudy
7:53 AM 45.0 °F 37.6 °F 35.1 °F 68% 29.72 in 10.0 mi South 17.3 mph - N/A   Clear
8:53 AM 46.0 °F 38.8 °F 36.0 °F 68% 29.72 in 10.0 mi South 18.4 mph - N/A   Clear
9:53 AM 46.9 °F - 37.9 °F 71% 29.72 in 10.0 mi South 19.6 mph 27.6 mph N/A   Clear
10:53 AM 48.9 °F - 41.0 °F 74% 29.73 in 10.0 mi South 18.4 mph - N/A   Clear
11:53 AM 48.9 °F - 42.1 °F 77% 29.72 in 10.0 mi South 12.7 mph - N/A   Overcast
12:53 PM 50.0 °F - 42.1 °F 74% 29.70 in 10.0 mi SSW 11.5 mph 23.0 mph N/A   Overcast
1:53 PM 50.0 °F - 43.0 °F 77% 29.67 in 10.0 mi South 10.4 mph - N/A   Overcast
2:53 PM 50.0 °F - 43.0 °F 77% 29.67 in 10.0 mi South 10.4 mph - N/A   Overcast
3:53 PM 48.9 °F - 43.0 °F 80% 29.68 in 10.0 mi South 11.5 mph - N/A   Overcast
4:53 PM 48.0 °F - 44.1 °F 86% 29.70 in 10.0 mi South 9.2 mph - N/A   Overcast
5:26 PM 48.0 °F - 44.1 °F 86% 29.69 in 10.0 mi South 8.1 mph - N/A   Overcast
5:53 PM 48.0 °F - 44.1 °F 86% 29.70 in 10.0 mi South 8.1 mph - N/A   Overcast
6:53 PM 46.0 °F 43.1 °F 44.1 °F 93% 29.72 in 7.0 mi SSW 5.8 mph - N/A   Overcast
7:31 PM 45.0 °F 41.8 °F 42.1 °F 90% 29.73 in 7.0 mi SW 5.8 mph - N/A   Overcast
7:53 PM 44.1 °F 40.8 °F 41.0 °F 89% 29.74 in 10.0 mi SW 5.8 mph - N/A   Overcast
8:53 PM 45.0 °F 40.1 °F 41.0 °F 86% 29.75 in 10.0 mi West 9.2 mph - N/A   Partly Cloudy
9:53 PM 45.0 °F 40.1 °F 37.0 °F 74% 29.77 in 10.0 mi West 9.2 mph - N/A   Partly Cloudy
10:53 PM 43.0 °F 36.0 °F 36.0 °F 76% 29.79 in 10.0 mi WNW 13.8 mph - N/A   Clear
11:53 PM 39.0 °F 34.0 °F 34.0 °F 82% 29.80 in 10.0 mi WNW 6.9 mph - N/A   Clear